TimeEST,TemperatureF,Dew PointF,Humidity,Sea Level PressureIn,VisibilityMPH,Wind Direction,Wind SpeedMPH,Gust SpeedMPH,PrecipitationIn,Events,Conditions,WindDirDegrees,DateUTC
12:53 AM,18.0,10.0,71,30.22,10.0,SSW,3.5,-,N/A,,Clear,200,2013-01-03 05:53:00
2:53 AM,16.0,10.0,77,30.24,9.0,Calm,Calm,-,N/A,,Clear,0,2013-01-03 07:53:00
3:53 AM,15.1,10.9,84,30.23,7.0,Calm,Calm,-,N/A,,Clear,0,2013-01-03 08:53:00
4:53 AM,14.0,10.9,88,30.24,7.0,Calm,Calm,-,N/A,,Clear,0,2013-01-03 09:53:00
5:53 AM,12.9,10.0,88,30.23,7.0,SSW,3.5,-,N/A,,Clear,200,2013-01-03 10:53:00
6:53 AM,12.9,10.0,88,30.24,7.0,SSW,3.5,-,N/A,,Clear,200,2013-01-03 11:53:00
7:53 AM,12.0,9.0,88,30.25,7.0,SSW,4.6,-,N/A,,Clear,200,2013-01-03 12:53:00
8:53 AM,14.0,10.9,88,30.25,7.0,South,6.9,-,N/A,,Clear,180,2013-01-03 13:53:00
9:53 AM,19.0,12.9,77,30.26,10.0,SW,4.6,-,N/A,,Clear,220,2013-01-03 14:53:00
10:53 AM,23.0,14.0,68,30.25,10.0,SW,6.9,-,N/A,,Clear,220,2013-01-03 15:53:00
11:53 AM,26.1,14.0,60,30.21,10.0,SW,9.2,17.3,N/A,,Clear,220,2013-01-03 16:53:00
12:53 PM,28.9,16.0,58,30.19,10.0,WSW,10.4,-,N/A,,Clear,240,2013-01-03 17:53:00
1:53 PM,32.0,17.1,54,30.17,10.0,West,13.8,25.3,N/A,,Clear,260,2013-01-03 18:53:00
2:53 PM,33.1,17.1,52,30.17,10.0,West,16.1,21.9,N/A,,Clear,260,2013-01-03 19:53:00
3:53 PM,32.0,16.0,52,30.18,10.0,WSW,15.0,21.9,N/A,,Clear,240,2013-01-03 20:53:00
4:53 PM,30.9,15.1,52,30.19,10.0,WSW,16.1,21.9,N/A,,Partly Cloudy,250,2013-01-03 21:53:00
5:53 PM,30.0,18.0,61,30.22,10.0,West,18.4,32.2,N/A,,Overcast,260,2013-01-03 22:53:00
6:53 PM,28.9,17.1,61,30.24,10.0,WSW,15.0,23.0,N/A,,Overcast,250,2013-01-03 23:53:00
7:53 PM,28.9,17.1,61,30.25,10.0,WSW,10.4,21.9,N/A,,Overcast,250,2013-01-04 00:53:00
8:53 PM,28.0,18.0,66,30.25,10.0,West,11.5,23.0,N/A,,Overcast,260,2013-01-04 01:53:00
9:03 PM,28.4,17.6,64,30.19,10.0,West,15.0,27.6,N/A,,Overcast,270,2013-01-04 02:03:00
9:53 PM,28.0,18.0,66,30.27,10.0,West,20.7,29.9,N/A,,Overcast,270,2013-01-04 02:53:00
10:53 PM,28.0,18.0,66,30.27,10.0,West,11.5,18.4,N/A,,Overcast,260,2013-01-04 03:53:00
11:53 PM,27.0,18.0,69,30.26,10.0,West,15.0,24.2,N/A,,Overcast,260,2013-01-04 04:53:00